Starlink 31868

operational
NORAD ID: 59783 Int'l Des: 2024-093 Owner: SPXS Country: US Constellation: starlink
LEOCIRCULAR

Starlink 31868について

説明を読み込み中...

リアルタイム位置

3D地球を読み込み中...

次回通過

高度履歴

Altitude vs Time

uPlot chart will show altitude changes over time

軌道要素

1 59783U 24093B 25306.00231761 -.00002550 00000-0 -83195-4 0 9990
2 59783 43.0028 206.7840 0001848 275.2807 84.7833 15.27573173 83207
Epoch: Nov 2, 2025 • Age: 48 hours

現在のステータス

高度 486.8 km
速度 7.63 km/s
衛星直下点 39.95°N, 85.38°W
打ち上げ日 May 18, 2024
運用期間 1.4 years
タイプ internet

技術仕様

分類 Payload
質量 730.00 kg
乾燥質量 700.00 kg
総質量 730.00 kg
長さ 0.30 m
直径 4.10 m
スパン 29.00 m
形状 Box + pan
製造者 SPXS
バスタイプ Starlink V2M
フェーズステータス In Orbit
所有者/国 SPXS/US

大規模コンステレーション

Loading constellations...